AirNav   Pilot Hours Calculator
 
 537 users online  

KHWQ Wheatland County Airport at Harlowton
Harlowton, Montana, USA

GOING TO HARLOWTON?


FAA INFORMATION EFFECTIVE 05 NOVEMBER 2020

Location

FAA Identifier: HWQ
Lat/Long: 46-26-55.0000N 109-51-10.0000W
46-26.916667N 109-51.166667W
46.4486111,-109.8527778
(estimated)
Elevation: 4311.9 ft. / 1314.3 m (surveyed)
Variation: 11E (2020)
From city: 2 miles NW of HARLOWTON, MT
Time zone: UTC -7 (UTC -6 during Daylight Saving Time)
Zip code: 59036

Airport Operations

Airport use: Open to the public
Activation date: 04/1940
Control tower: no
ARTCC: SALT LAKE CITY CENTER
FSS: GREAT FALLS FLIGHT SERVICE STATION
NOTAMs facility: GTF (NOTAM-D service available)
Attendance: UNATNDD
Wind indicator: lighted
Segmented circle: yes
Lights: ACTVT MIRL RY 09/27 & PAPI RY 27 - CTAF.
Beacon: white-green (lighted land airport)
Operates sunset to sunrise.

Airport Communications

CTAF: 122.9
  • APCH SVC PRVDD BY SALT LAKE ARTCC 127.75/351.9 (BILLINGS RCAG).

Nearby radio navigation aids

VOR radial/distance  VOR name  Freq  Var
LWTr181/37.7LEWISTOWN VOR/DME115.4515E

Airport Services

Parking: hangars and tiedowns
Airframe service: NONE
Powerplant service: NONE
Bottled oxygen: NONE
Bulk oxygen: NONE

Runway Information

Runway 9/27

Dimensions: 4200 x 60 ft. / 1280 x 18 m
Surface: asphalt, in excellent condition
Weight bearing capacity: 
Single wheel: 12.5
Runway edge lights: medium intensity
RUNWAY 9  RUNWAY 27
Latitude: 46-26.968702N46-26.864792N
Longitude: 109-51.660157W109-50.672045W
Elevation: 4311.9 ft.4261.7 ft.
Traffic pattern: leftleft
Runway heading: 088 magnetic, 099 true267 magnetic, 278 true
Markings: nonprecision, in good conditionnonprecision, in good condition
Visual slope indicator: 2-light PAPI on left (3.00 degrees glide path)
Touchdown point: yes, no lightsyes, no lights
Obstructions: 19 ft. tree, 410 ft. from runway, 30 ft. right of centerline, 11:1 slope to clearnone

Airport Ownership and Management from official FAA records

Ownership: Publicly-owned
Owner: WHEATLAND COUNTY
PO BOX 1903
HARLOWTON, MT 59036
Phone 406-632-4891
Manager: LYNN DALE
BOX 1903
HARLOWTON, MT 59036
Phone (406) 632 5662

Airport Operational Statistics

Aircraft based on the field: 12
Single engine airplanes: 8
Multi engine airplanes: 1
Helicopters: 3
    
Aircraft operations: avg 44/week *
66% local general aviation
26% transient general aviation
5% air taxi
2% military
* for 12-month period ending 17 July 2019

Additional Remarks

DEER ON & INVOF RY; ESPECIALLY DURING NIGHTIME HOURS.
FOR CD IF UNA TO CTC ON FSS FREQ, CTC SALT LAKE ARTCC AT 801-320-2568.

Instrument Procedures

NOTE: All procedures below are presented as PDF files. If you need a reader for these files, you should download the free Adobe Reader.

NOT FOR NAVIGATION. Please procure official charts for flight.
FAA instrument procedures published for use from 05 November 2020 at 0901Z to 03 December 2020 at 0900z.

 
IAPs - Instrument Approach Procedures
RNAV (GPS) RWY 09   download (216KB)
RNAV (GPS) RWY 27   download (210KB)
NOTE: Special Take-Off Minimums/Departure Procedures apply   download (625KB)

Other nearby airports with instrument procedures:

6S0 - Big Timber Airport (39 nm S)
KLWT - Lewistown Municipal Airport (39 nm NE)
KLVM - Mission Field Airport (51 nm SW)
KRPX - Roundup Airport (54 nm E)
6S8 - Laurel Municipal Airport (64 nm SE)
 
Loc | Ops | Rwys | IFR | FBO | Links
Com | Nav | Svcs | Stats | Notes
Area around KHWQ (Wheatland County Airport at Harlowton)
 
Road maps at: MapQuest Bing Google
 
Aerial photo
WARNING: Photo may not be current or correct
Aerial photo of KHWQ (Wheatland County Airport at Harlowton)
Photo by Lucas Necessary
Taken in February 2008

Do you have a better or more recent aerial photo of Wheatland County Airport at Harlowton that you would like to share? If so, please send us your photo.

 
Sectional chart

 
Airport distance calculator
Flying to Wheatland County Airport at Harlowton? Find the distance to fly.

From to KHWQ

Sunrise and sunset
Times for 25-Nov-2020
 Local
(UTC-7)
 Zulu
(UTC)
Morning civil twilight07:0414:04
Sunrise07:3714:37
Sunset16:3623:36
Evening civil twilight17:1000:10

Current date and time
Zulu (UTC)  26-Nov-2020 06:01:11
Local (UTC-7)  25-Nov-2020 23:01:11
 
METAR
KLWT 
39nm NE 
260554Z AUTO 23008KT 10SM SCT060 M06/M07 A2992 RMK AO2 SLP156 60000 T10561067 11006 21056 53005
K6S0 
39nm S 
260555Z AUTO 26022KT 10SM CLR M01/M10 A2997 RMK A01
K7S6 
44nm W 
260555Z AUTO 02006KT 10SM M06/M11 A2996 RMK A01 White Sulphur Spg
KMVH 
44nm NE 
260555Z AUTO 27005KT 10SM CLR M03/M06 A2992 RMK AO2
TAF
KLWT 
39nm NE 
260403Z 2604/2624 28009KT P6SM OVC050 TEMPO 2604/2606 4SM -SHSN BR BKN015 OVC050 FM261400 25011G20KT P6SM SCT060 BKN180 WS020/28045KT FM261700 28017G26KT P6SM FEW070 SCT180
NOTAMs
Click for the latest NOTAMs
NOTAMs are issued by the DoD/FAA and will open in a separate window not controlled by AirNav.

 

 
 

Would you like to see your business listed on this page?

 If your business provides an interesting product or service to pilots, flight crews, aircraft, or users of the Wheatland County Airport at Harlowton, you should consider listing it here.  To start the listing process, click on the button below
 
Add a business
 

Other Pages about Wheatland County Airport at Harlowton

Update a link
 
Copyright © AirNav, LLC. All rights reserved. Privacy Policy  Contact